VE3CGR-6 Weather Reports


time (UTC)temp
F
wind
direction
speed
knots
gust
knots
rain 1hr
in
rain 24hr
in
rain mn
in
humidity
%
barometer
mb
20260510131018 46 293 0.9 12.2 0.00 0.15 0.00 62 1013.7
20260510130018 45 293 1.7 11.3 0.00 0.15 0.00 63 1013.6
20260510125017 45 315 0.9 7.8 0.00 0.15 0.00 67 1013.5
20260510124018 44 270 0.9 11.3 0.00 0.15 0.00 67 1013.3
20260510123017 44 293 0.9 7.8 0.00 0.15 0.00 69 1013.2
20260510122018 43 0 0.9 9.6 0.00 0.15 0.00 69 1013.2
20260510121017 43 338 0.9 8.7 0.00 0.15 0.00 70 1013.0
20260510120017 43 315 0.9 7.8 0.00 0.15 0.00 70 1012.9
20260510115017 42 0.0 5.2 0.00 0.15 0.00 72 1012.7
20260510114017 42 293 0.9 10.4 0.00 0.15 0.00 72 1012.6
20260510113017 41 293 0.9 5.2 0.00 0.15 0.00 73 1012.4
20260510112017 41 0.0 1.7 0.00 0.15 0.00 74 1012.2
20260510111017 40 293 0.9 7.8 0.00 0.15 0.00 75 1012.1
20260510110017 40 0.0 7.0 0.00 0.15 0.00 75 1011.9
20260510105017 39 0.0 6.1 0.00 0.15 0.00 75 1011.6
20260510104017 39 0.0 2.6 0.00 0.15 0.00 76 1011.5
20260510103017 39 0.0 5.2 0.00 0.15 0.00 76 1011.2
20260510102017 39 293 1.7 7.8 0.00 0.15 0.00 76 1010.9
20260510101017 39 0.0 0.0 0.00 0.15 0.00 76 1010.8
20260510100017 39 0.0 2.6 0.00 0.15 0.00 76 1010.6
20260510095017 39 0.0 0.0 0.00 0.15 0.00 76 1010.4
20260510094017 39 0.0 0.0 0.00 0.15 0.00 75 1010.3
20260510093017 40 0.0 0.0 0.00 0.15 0.00 75 1010.2
20260510092017 40 0.0 0.0 0.00 0.15 0.00 75 1010.1
20260510091017 40 0.0 7.8 0.00 0.15 0.00 75 1009.9
20260510090017 40 0.0 5.2 0.00 0.15 0.00 75 1009.8
20260510085017 40 0.0 5.2 0.00 0.15 0.00 75 1009.8
20260510084017 40 0.0 0.0 0.00 0.15 0.00 75 1009.7
20260510083017 40 0.0 0.0 0.00 0.15 0.00 74 1009.5
20260510082017 41 0.0 0.0 0.00 0.15 0.00 74 1009.5
20260510081017 41 293 0.9 7.8 0.00 0.15 0.00 74 1009.5
20260510080017 41 0.0 3.5 0.00 0.15 0.00 74 1009.4
20260510075017 41 0.0 2.6 0.00 0.15 0.00 73 1009.4
20260510074017 42 315 0.9 4.3 0.00 0.15 0.00 72 1009.4
20260510073017 42 0.0 0.0 0.00 0.15 0.00 71 1009.3
20260510072017 43 0.0 0.0 0.00 0.15 0.00 70 1009.3
20260510071017 43 0.0 4.3 0.00 0.15 0.00 69 1009.2
20260510070017 44 338 0.9 11.3 0.00 0.15 0.00 68 1009.1
20260510065017 44 0.0 9.6 0.00 0.15 0.00 67 1009.1
20260510064018 45 338 0.9 11.3 0.00 0.15 0.00 66 1009.0
20260510063017 45 0.0 7.0 0.00 0.15 0.00 65 1008.9
20260510062017 45 0.0 5.2 0.00 0.15 0.00 64 1008.8
20260510061017 46 293 0.9 8.7 0.00 0.15 0.00 64 1008.5
20260510060017 46 0.0 6.1 0.00 0.15 0.00 64 1008.3
20260510055017 46 0.0 0.0 0.00 0.15 0.00 64 1008.3
20260510054017 47 0.0 0.0 0.00 0.15 0.00 64 1008.1
20260510053017 47 0.0 0.0 0.00 0.15 0.00 63 1008.1
20260510052017 47 0.0 0.0 0.00 0.15 0.00 63 1008.0
20260510051017 48 0.0 0.0 0.00 0.15 0.00 64 1008.0
20260510050017 48 0.0 0.0 0.00 0.15 0.00 63 1007.8
20260510045017 48 0.0 0.0 0.00 0.15 0.00 63 1007.6
20260510044017 48 0.0 0.0 0.00 0.15 0.00 64 1007.4
20260510043017 48 0.0 0.0 0.00 0.15 0.00 65 1007.4
20260510042017 48 0.0 0.0 0.00 0.15 0.00 66 1007.3
20260510041017 48 0.0 0.0 0.00 0.15 0.00 66 1007.2
20260510040017 48 0.0 0.0 0.00 0.15 0.15 67 1007.1
20260510035017 48 0.0 0.0 0.00 0.15 0.15 67 1006.9
20260510034017 49 0.0 0.0 0.00 0.15 0.15 67 1006.8
20260510033017 49 0.0 0.0 0.00 0.15 0.15 68 1006.7
20260510032017 49 0.0 0.0 0.00 0.15 0.15 67 1006.6
20260510031017 50 0.0 0.0 0.00 0.15 0.15 66 1006.5
20260510030017 50 0.0 0.0 0.00 0.15 0.15 65 1006.9
20260510025017 50 0.0 7.8 0.00 0.15 0.15 66 1006.8
20260510024017 51 0.0 3.5 0.00 0.15 0.15 69 1006.6
20260510023017 51 0.0 6.1 0.00 0.15 0.15 69 1006.5
20260510022017 51 0.0 3.5 0.00 0.15 0.15 70 1006.7
20260510021017 52 0.0 0.9 0.00 0.15 0.15 73 1006.2
20260510020017 52 0.0 7.0 0.00 0.15 0.15 77 1006.2
20260510015017 53 0.0 2.6 0.00 0.15 0.15 80 1005.9
20260510014017 53 0.0 0.0 0.00 0.15 0.15 83 1005.4
20260510013017 53 0.0 0.0 0.00 0.15 0.15 84 1005.0
20260510012017 54 0.0 0.0 0.00 0.15 0.15 85 1004.7
20260510011017 54 0.0 0.0 0.00 0.15 0.15 84 1004.5
20260510010017 54 0.0 0.0 0.00 0.15 0.15 84 1004.1
20260510005017 54 0.0 0.0 0.00 0.15 0.15 85 1004.0
20260510004017 54 0.0 0.0 0.01 0.15 0.15 85 1003.7
20260510003017 55 0.0 0.0 0.01 0.15 0.15 85 1003.5
20260510002017 55 0.0 0.0 0.01 0.15 0.15 86 1003.6
20260510001017 55 0.0 0.0 0.01 0.15 0.15 87 1003.3
20260510000017 55 0.0 0.0 0.01 0.15 0.15 88 1003.2
20260509235017 55 0.0 0.0 0.01 0.15 0.15 88 1003.1
20260509234017 55 0.0 0.0 0.00 0.14 0.14 88 1003.1
20260509233017 55 0.0 0.0 0.00 0.14 0.14 87 1002.7
20260509232017 56 0.0 0.0 0.00 0.14 0.14 87 1002.5
20260509231017 55 0.0 0.0 0.00 0.14 0.14 86 1002.2
20260509230017 55 293 0.9 7.8 0.00 0.14 0.14 86 1002.2
20260509225017 55 225 0.9 6.1 0.02 0.14 0.14 86 1002.2
20260509224017 55 0.0 6.1 0.09 0.14 0.14 86 1002.1
20260509223017 55 225 0.9 7.0 0.13 0.14 0.14 87 1001.9
20260509222017 55 225 2.6 8.7 0.14 0.14 0.14 87 1001.9
20260509221017 55 225 2.6 17.4 0.14 0.14 0.14 88 1002.0
20260509220017 54 203 0.9 6.1 0.14 0.14 0.14 87 1002.0
20260509215017 55 203 4.3 12.2 0.13 0.13 0.13 84 1002.4
20260509214017 56 225 3.5 15.6 0.05 0.05 0.05 82 1002.3
20260509213017 58 203 3.5 10.4 0.02 0.02 0.02 79 1002.2
20260509212017 59 180 5.2 11.3 0.00 0.00 0.00 74 1002.1
20260509211017 58 180 2.6 10.4 0.00 0.00 0.00 73 1002.2
20260509210017 59 180 5.2 10.4 0.00 0.00 0.00 73 1002.1
20260509205017 59 180 6.1 12.2 0.00 0.00 0.00 72 1001.7
20260509204017 59 180 4.3 12.2 0.00 0.00 0.00 73 1001.5
20260509203017 59 180 6.1 13.9 0.00 0.00 0.00 72 1002.0
20260509202017 59 180 4.3 9.6 0.00 0.00 0.00 71 1002.1
20260509201017 60 180 4.3 10.4 0.00 0.00 0.00 70 1002.2
20260509200017 60 180 5.2 16.5 0.00 0.00 0.00 70 1002.2
20260509195017 60 180 6.1 17.4 0.00 0.00 0.00 70 1002.1
20260509194017 61 180 8.7 15.6 0.00 0.00 0.00 68 1002.2
20260509193017 61 180 7.0 16.5 0.00 0.00 0.00 69 1002.4
20260509192017 62 180 7.0 17.4 0.00 0.00 0.00 68 1002.5
20260509191017 62 180 8.7 17.4 0.00 0.00 0.00 68 1002.5
20260509190017 62 180 8.7 15.6 0.00 0.00 0.00 67 1002.8
20260509185017 63 180 5.2 14.8 0.00 0.00 0.00 65 1002.7
20260509184017 63 180 7.8 18.2 0.00 0.00 0.00 62 1003.0
20260509183017 62 180 5.2 12.2 0.00 0.00 0.00 65 1002.8
20260509182017 62 180 7.8 13.9 0.00 0.00 0.00 65 1002.9
20260509181017 61 180 7.0 13.9 0.00 0.00 0.00 67 1003.2
20260509180017 61 180 5.2 13.0 0.00 0.00 0.00 68 1003.3
20260509175017 61 180 5.2 12.2 0.00 0.00 0.00 69 1003.5
20260509174017 60 180 1.7 11.3 0.00 0.00 0.00 71 1003.6
20260509173017 59 180 3.5 9.6 0.00 0.00 0.00 72 1003.8
20260509172017 59 180 1.7 7.8 0.00 0.00 0.00 72 1004.0
20260509171017 59 158 1.7 7.0 0.00 0.00 0.00 74 1004.4
20260509170017 58 0.0 6.1 0.00 0.00 0.00 75 1004.8
20260509165016 57 0.0 5.2 0.00 0.00 0.00 76 1004.8
20260509164017 57 203 1.7 9.6 0.00 0.00 0.00 76 1005.0
20260509163017 57 0.0 4.3 0.00 0.00 0.00 76 1005.0
20260509162017 57 225 0.9 7.8 0.00 0.00 0.00 77 1005.1
20260509161016 57 225 2.6 12.2 0.00 0.00 0.00 77 1005.2
20260509160017 56 225 3.5 11.3 0.00 0.00 0.00 78 1005.3
20260509155016 55 203 0.9 7.0 0.00 0.00 0.00 81 1005.4
20260509154017 54 203 1.7 11.3 0.00 0.00 0.00 82 1005.6
20260509153017 54 225 2.6 10.4 0.00 0.00 0.00 82 1005.6
20260509152016 54 180 4.3 11.3 0.00 0.00 0.00 82 1005.7
20260509151017 55 225 5.2 13.9 0.00 0.00 0.00 79 1005.8
20260509150016 55 180 3.5 12.2 0.00 0.00 0.00 77 1005.8
20260509145016 56 180 4.3 13.0 0.00 0.00 0.00 76 1005.6
20260509144016 55 158 3.5 13.9 0.00 0.00 0.00 76 1005.7
20260509143016 55 180 1.7 9.6 0.00 0.00 0.00 78 1005.8
20260509142016 54 180 2.6 9.6 0.00 0.00 0.00 77 1006.1
20260509141016 54 180 3.5 8.7 0.00 0.00 0.00 76 1006.3
20260509140017 54 225 1.7 8.7 0.00 0.00 0.00 76 1006.4
20260509135016 53 180 2.6 7.8 0.00 0.00 0.00 76 1006.3
20260509134016 53 203 2.6 10.4 0.00 0.00 0.00 77 1006.2
20260509133016 52 180 4.3 7.8 0.00 0.00 0.00 76 1006.3
20260509132017 52 180 1.7 6.1 0.00 0.00 0.00 74 1006.4